[[{"header":{"parameterUnit":"m.s-1","parameterCategory":1,"la1":30.2991,"la2":30.254,"lo1":-89.0895,"lo2":-89.0444,"dy":0.0017,"dx":0.0017,"nx":28,"ny":28,"refTime":"2025-01-15T09:00:00:Z","depth":0,"parameterNumber":2,"parameterNumberName":"U-component_of_WINDS"},"data":[0,0,0,0,0,0,0,0,0,0,0,0,0,0,0,0,0,0,0,0,0,0,0,0,0,0,0,0,0,0,0,0,0,0,0,0,0,0,0,0,0,0,0,0,0,0,0,0,0,0,0,0,0,0,0,0,0,0,3.5766,3.5767,0,3.5846,3.5847,3.5848,3.5779,3.5776,3.5773,3.577,3.5853,3.5858,3.5862,0,0,0,0,0,0,0,0,0,0,0,0,0,3.5552,3.5556,3.5766,3.5767,3.5768,3.5846,3.5847,3.5848,3.5779,3.5776,3.5772,3.5769,3.5851,3.5857,3.5863,0,0,0,0,0,0,0,0,0,0,0,0,0,3.564,3.5558,3.5765,3.5743,3.5741,3.5846,3.5847,3.5848,3.578,3.5775,3.5771,3.5767,3.5849,3.5856,3.5864,3.5995,0,0,3.5886,3.5889,0,0,0,0,0,0,0,0,3.5635,3.5648,3.5745,3.5744,3.5743,3.5798,3.5802,3.5898,3.5781,3.5765,3.577,3.5765,3.5838,3.5846,3.5871,3.5999,3.6002,3.5887,3.5891,3.5894,3.5896,0,0,0,0,0,0,0,3.5629,3.5644,3.5797,3.5746,3.5745,3.5728,3.5736,3.582,3.5825,3.5766,3.5761,3.5772,3.5837,3.5864,3.5872,3.6003,3.5886,3.5893,3.5897,3.59,3.6242,3.6247,0,0,0,0,0,0,3.5625,3.5639,3.5795,3.58,3.5677,3.5736,3.5744,3.5785,3.5824,3.5825,3.5775,3.5768,3.5853,3.5863,3.5875,3.603,3.5894,3.5901,3.5905,3.6238,3.6243,3.6248,0,0,0,0,0,0,3.5621,3.564,3.5792,3.5718,3.5736,3.5744,3.579,3.5789,3.5815,3.5831,3.5831,3.5802,3.585,3.5864,3.5965,3.6032,3.5904,3.5911,3.6232,3.6239,3.6246,3.6342,0,0,0,0,0,0,3.5615,3.5639,3.5689,3.572,3.5741,3.5881,3.5794,3.5793,3.5828,3.582,3.5856,3.5858,3.5848,3.5955,3.5972,3.604,3.5917,3.6226,3.6235,3.6244,3.6333,3.6352,3.6368,0,0,0,0,0,3.5608,3.5713,3.5692,3.5711,3.5803,3.5885,3.5897,3.5884,3.5834,3.5884,3.5894,3.5856,3.6022,3.5966,3.5985,3.6055,3.6222,3.6233,3.6243,3.6325,3.6348,3.6367,0,0,0,0,0,0,3.5689,3.5716,3.5693,3.5811,3.5847,3.5873,3.5936,3.5908,3.5958,3.5948,3.593,3.5938,3.6045,3.606,3.5997,3.6184,3.6114,3.6129,3.617,3.6191,3.6208,3.6202,3.5923,0,0,0,0,0,3.5721,3.5785,3.5806,3.5908,3.5927,3.5929,3.5964,3.5951,3.5986,3.6001,3.6018,3.6054,3.6114,3.6154,3.621,3.6335,3.6342,3.6393,3.6411,3.6425,3.6438,3.6504,3.6527,3.6283,3.6283,3.6283,0,0,3.5787,3.581,3.5852,3.5925,3.595,3.6017,3.5942,3.6016,3.6065,3.6012,3.6108,3.6122,3.6161,3.6275,3.6325,3.6291,3.6506,3.6438,3.6449,3.6454,3.6517,3.6541,3.6561,3.629,3.6289,3.6288,0,0,3.5941,3.5966,3.6053,3.608,3.612,3.6121,3.6142,3.6173,3.618,3.6276,3.6238,3.6296,3.64,3.6429,3.6457,3.6623,3.659,3.6642,3.6732,3.6797,3.6816,3.6833,3.6891,3.6912,3.6655,3.6655,3.6655,0,3.6018,3.6118,3.6102,3.6179,3.6212,3.6167,3.6255,3.6282,3.6339,3.6362,3.6323,3.6452,3.6475,3.6594,3.6635,3.666,3.6683,3.6637,3.6815,3.6832,3.6847,3.6902,3.6924,3.6661,3.666,3.666,3.6659,0,3.621,3.628,3.6346,3.64,3.6441,3.6524,3.652,3.6563,3.6547,3.6551,3.6649,3.6676,3.6736,3.6763,3.6748,3.6881,3.6858,3.6817,3.6746,3.6877,3.6928,3.6949,3.667,3.6667,3.6666,3.6664,0,0,3.6417,3.6463,3.6487,3.6511,3.6552,3.6605,3.6685,3.6744,3.6781,3.6821,3.6888,3.6977,3.6939,3.6971,3.6959,3.7016,3.7145,3.6968,3.6969,3.6999,3.7291,3.7321,3.7346,3.7124,3.7128,3.7131,3.7288,0,3.6572,3.6712,3.67,3.6831,3.6895,3.6854,3.6923,3.6956,3.6962,3.7017,3.7024,3.7087,3.7033,3.7053,3.7108,3.7118,3.7203,3.7106,3.7185,3.7188,3.7175,3.7373,3.7405,3.7551,3.7308,3.7311,3.7314,0,3.6772,3.6819,3.6957,3.6987,3.7014,3.7077,3.7129,3.7182,3.7218,3.7219,3.7255,3.7233,3.7314,3.7242,3.7352,3.7286,3.7318,3.7327,3.7333,3.7339,3.7258,3.7383,3.7598,3.762,3.7346,3.7343,3.7341,0,3.6908,3.7006,3.7101,3.7123,3.7161,3.7206,3.7224,3.7256,3.7292,3.7338,3.7361,3.7416,3.7446,3.749,3.7483,3.7431,3.7595,3.7522,3.7597,3.7597,3.7632,3.763,3.7854,3.7655,3.7655,3.7654,3.7654,0,3.7082,3.7168,3.7162,3.7221,3.7316,3.7301,3.7396,3.7408,3.7437,3.7497,3.7465,3.7521,3.7509,3.7566,3.7561,3.7653,3.7667,3.7669,3.7667,3.7672,3.7671,3.7691,3.768,3.766,3.7659,3.7658,3.7657,0,3.7249,3.725,3.735,3.7378,3.7387,3.7456,3.7479,3.7534,3.7539,3.7615,3.7632,3.7638,3.7703,3.7701,3.7775,3.7772,3.7884,3.787,3.7872,3.7868,3.7943,3.7935,3.8186,3.8218,3.8,3.8002,3.8004,0,3.736,3.7425,3.746,3.7497,3.7518,3.758,3.7616,3.7605,3.7644,3.7689,3.7739,3.7801,3.785,3.7955,3.7967,3.8023,3.8009,3.8094,3.8018,3.802,3.8009,3.8005,3.8011,3.8108,3.8111,3.8113,3.8114,0,3.7555,3.7552,3.7606,3.766,3.7704,3.7746,3.7785,3.7818,3.781,3.7856,3.7922,3.796,3.8035,3.8097,3.815,3.8169,3.814,3.8138,3.8158,3.8163,3.8161,3.8162,3.7911,3.8132,3.813,3.8129,3.8128,3.8127,3.7697,3.7752,3.7785,3.7846,3.7874,3.7911,3.7963,3.7974,3.8029,3.8089,3.8079,3.8153,3.8186,3.8256,3.8279,3.8336,3.8306,3.8336,3.8343,3.835,3.8358,3.8153,3.8346,3.8346,3.8345,3.8345,3.8344,0,3.7889,3.7909,3.7965,3.802,3.8068,3.8037,3.8078,3.812,3.8185,3.8219,3.8268,3.8343,3.8403,3.8419,3.8476,3.8519,3.8507,3.8534,3.853,3.8535,3.8382,3.8358,3.8543,3.8543,3.8543,3.8542,3.8542,3.8542,3.7995,3.8087,3.8088,3.8193,3.8212,3.8284,3.831,3.8343,3.837,3.8456,3.8505,3.8515,3.8542,3.8601,3.8654,3.8657,3.8679,3.8711,3.8709,3.8566,3.8546,3.8527,3.8504,3.8716,3.8717,3.8857,3.8858,3.8859]},{"header":{"parameterUnit":"m.s-1","parameterCategory":1,"la1":30.2991,"la2":30.254,"lo1":-89.0895,"lo2":-89.0444,"dy":0.0017,"dx":0.0017,"nx":28,"ny":28,"refTime":"2025-01-15T09:00:00:Z","depth":0,"parameterNumber":3,"parameterNumberName":"V-component_of_WINDS"},"data":[0,0,0,0,0,0,0,0,0,0,0,0,0,0,0,0,0,0,0,0,0,0,0,0,0,0,0,0,0,0,0,0,0,0,0,0,0,0,0,0,0,0,0,0,0,0,0,0,0,0,0,0,0,0,0,0,0,0,0.7845,0.7845,0,0.7859,0.786,0.786,0.7853,0.7853,0.7852,0.7852,0.7868,0.7869,0.787,0,0,0,0,0,0,0,0,0,0,0,0,0,0.781,0.7811,0.7845,0.7845,0.7845,0.7859,0.786,0.786,0.7853,0.7853,0.7852,0.7852,0.7868,0.7869,0.787,0,0,0,0,0,0,0,0,0,0,0,0,0,0.7825,0.7811,0.7845,0.7843,0.7843,0.7859,0.786,0.786,0.7853,0.7853,0.7852,0.7852,0.7868,0.7869,0.787,0.7888,0,0,0.7873,0.7874,0,0,0,0,0,0,0,0,0.7824,0.7826,0.7843,0.7843,0.7844,0.7854,0.7853,0.7869,0.7853,0.785,0.7852,0.7851,0.7864,0.7865,0.7869,0.7889,0.789,0.7874,0.7874,0.7875,0.7875,0,0,0,0,0,0,0,0.7823,0.7826,0.7851,0.7844,0.7844,0.7842,0.7844,0.7856,0.786,0.785,0.7849,0.7851,0.7864,0.7868,0.787,0.789,0.7873,0.7875,0.7875,0.7876,0.7923,0.7924,0,0,0,0,0,0,0.7822,0.7825,0.785,0.7851,0.7832,0.7843,0.7845,0.7851,0.786,0.786,0.7852,0.7851,0.7867,0.7868,0.787,0.7891,0.7875,0.7876,0.7876,0.7923,0.7924,0.7924,0,0,0,0,0,0,0.7822,0.7825,0.7849,0.7838,0.7841,0.7844,0.7851,0.7852,0.7856,0.7861,0.7861,0.7856,0.7866,0.7869,0.7883,0.7892,0.7876,0.7877,0.7922,0.7923,0.7924,0.7934,0,0,0,0,0,0,0.7821,0.7824,0.7832,0.7838,0.7841,0.7862,0.7852,0.7852,0.7858,0.7857,0.7865,0.7865,0.7866,0.7882,0.7884,0.7893,0.7878,0.7921,0.7923,0.7924,0.7933,0.7935,0.7937,0,0,0,0,0,0.7819,0.7834,0.7832,0.7835,0.7851,0.7863,0.7865,0.7865,0.7859,0.7866,0.7869,0.7865,0.789,0.7883,0.7886,0.7895,0.7921,0.7922,0.7923,0.7932,0.7935,0.7937,0,0,0,0,0,0,0.783,0.7835,0.7833,0.785,0.7856,0.7862,0.7871,0.7868,0.7876,0.7875,0.7875,0.7876,0.7891,0.7895,0.7887,0.7913,0.7905,0.7907,0.791,0.7913,0.7915,0.7913,0.7879,0,0,0,0,0,0.7834,0.7843,0.7848,0.7863,0.7866,0.7868,0.7873,0.7872,0.7879,0.7881,0.7885,0.7892,0.7901,0.7907,0.7916,0.7933,0.7934,0.7941,0.7943,0.7944,0.7946,0.7954,0.7957,0.7928,0.7928,0.7928,0,0,0.7843,0.7847,0.7853,0.7865,0.7869,0.7879,0.787,0.7881,0.7888,0.7883,0.7897,0.79,0.7907,0.7923,0.793,0.7926,0.7954,0.7946,0.7947,0.7948,0.7956,0.7959,0.7961,0.7929,0.7929,0.7929,0,0,0.7864,0.7869,0.7881,0.7885,0.7892,0.7893,0.7895,0.7901,0.7903,0.7916,0.7913,0.7921,0.7937,0.7941,0.7946,0.7967,0.7964,0.797,0.798,0.7988,0.7991,0.7993,0.7999,0.8002,0.7971,0.7971,0.7971,0,0.7875,0.7889,0.7888,0.7899,0.7903,0.7898,0.791,0.7915,0.7924,0.7927,0.7923,0.7941,0.7946,0.7962,0.7967,0.7971,0.7974,0.7969,0.799,0.7992,0.7994,0.8001,0.8003,0.7972,0.7972,0.7972,0.7972,0,0.7901,0.7911,0.792,0.7928,0.7934,0.7946,0.7946,0.7952,0.795,0.7951,0.7964,0.7969,0.7978,0.7982,0.7981,0.7998,0.7995,0.799,0.7982,0.7998,0.8004,0.8006,0.7973,0.7973,0.7973,0.7972,0,0,0.7931,0.7936,0.794,0.7943,0.7949,0.7956,0.7967,0.7975,0.798,0.7986,0.7994,0.8007,0.8002,0.8007,0.8007,0.8014,0.8029,0.8008,0.8008,0.8011,0.8047,0.805,0.8053,0.8026,0.8027,0.8027,0.8046,0,0.7952,0.797,0.7969,0.7986,0.7995,0.7989,0.7998,0.8003,0.8004,0.8011,0.8012,0.8021,0.8014,0.8017,0.8024,0.8026,0.8036,0.8024,0.8034,0.8035,0.8033,0.8056,0.806,0.8077,0.8048,0.8049,0.8049,0,0.798,0.7986,0.8004,0.8007,0.801,0.8018,0.8025,0.8032,0.8036,0.8036,0.8041,0.8039,0.8049,0.804,0.8054,0.8046,0.805,0.8051,0.8051,0.8052,0.8043,0.8057,0.8083,0.8085,0.8053,0.8052,0.8052,0,0.7999,0.8011,0.8023,0.8026,0.803,0.8035,0.8038,0.8041,0.8046,0.8051,0.8054,0.8061,0.8065,0.807,0.8069,0.8063,0.8083,0.8074,0.8083,0.8083,0.8088,0.8087,0.8114,0.809,0.809,0.809,0.809,0,0.8022,0.8034,0.8031,0.8039,0.805,0.8048,0.806,0.8061,0.8064,0.8071,0.8067,0.8074,0.8073,0.8079,0.8079,0.809,0.8091,0.8092,0.8091,0.8092,0.8092,0.8094,0.8093,0.8091,0.8091,0.8091,0.8091,0,0.8046,0.8045,0.8057,0.8059,0.806,0.8069,0.8071,0.8077,0.8077,0.8086,0.8088,0.8089,0.8096,0.8096,0.8104,0.8104,0.8117,0.8115,0.8115,0.8115,0.8123,0.8122,0.8152,0.8156,0.813,0.8131,0.8131,0,0.8061,0.8069,0.8072,0.8076,0.8078,0.8085,0.8089,0.8087,0.8091,0.8096,0.8102,0.8109,0.8114,0.8126,0.8127,0.8133,0.8132,0.8142,0.8133,0.8132,0.8131,0.813,0.8131,0.8143,0.8144,0.8144,0.8144,0,0.8088,0.8087,0.8092,0.8098,0.8102,0.8107,0.8111,0.8114,0.8112,0.8117,0.8124,0.8128,0.8136,0.8143,0.8149,0.8151,0.8147,0.8147,0.8149,0.815,0.8149,0.8149,0.812,0.8146,0.8146,0.8146,0.8146,0.8146,0.8107,0.8114,0.8116,0.8122,0.8125,0.8128,0.8134,0.8134,0.814,0.8146,0.8144,0.8152,0.8155,0.8162,0.8164,0.817,0.8166,0.817,0.8171,0.8171,0.8172,0.8148,0.8171,0.8171,0.8171,0.8171,0.8171,0,0.8133,0.8134,0.814,0.8145,0.8149,0.8145,0.8148,0.8152,0.8159,0.8162,0.8167,0.8174,0.818,0.8181,0.8187,0.8191,0.819,0.8193,0.8192,0.8193,0.8175,0.8172,0.8194,0.8194,0.8194,0.8194,0.8194,0.8194,0.8148,0.8158,0.8156,0.8167,0.8168,0.8175,0.8178,0.818,0.8182,0.8191,0.8195,0.8195,0.8197,0.8202,0.8208,0.8208,0.821,0.8213,0.8213,0.8196,0.8194,0.8192,0.8189,0.8214,0.8214,0.823,0.823,0.823]}]]